Location: Asnières
(49.1337°N, 2.3555°E)
Time: 11:18:26
(UTC+00:00)

Daily predictions for brighter satellites

Satellite Brightness Start Highest point End
(mag) Time Altitude Azimuth Time Altitude Azimuth Time Altitude Azimuth
Cosmos 1741 Rocket 4.2 20:28:07 10° NNW 20:33:29 84° WSW 20:38:48 10° SSE
CARTOSAT-1 3.6 20:30:37 10° SSE 20:34:54 71° ENE 20:39:12 10° N
Cosmos 1606 Rocket 4.4 20:31:15 10° N 20:35:16 35° ENE 20:39:16 10° SE
USA 245 3.3 20:33:03 10° SSE 20:36:44 51° ENE 20:39:45 10° N
Cosmos 2322 Rocket 4.4 20:33:49 10° N 20:37:18 16° NE 20:40:47 10° ENE
Ariane Rocket 3.2 20:33:52 10° SSE 20:38:59 80° WSW 20:44:07 10° NNW
PSLV R/B 4.3 20:37:14 10° N 20:41:24 74° WNW 20:45:34 10° SSW
CZ-4B R/B 1.1 20:42:40 10° N 20:45:33 80° WNW 20:48:27 10° SSW
USA 234 4.4 20:41:48 10° ENE 20:47:58 45° N 20:54:07 10° WNW
ATLAS 2AS CENTAUR R/B 4.2 20:42:34 10° NW 20:48:22 29° WSW 20:53:54 10° SSW
ARIANE 5 R/B 3.9 20:44:43 10° ESE 20:48:30 28° ENE 20:52:16 10° N
Terra 2.6 20:44:27 10° SE 20:48:52 39° ENE 20:53:18 10° N
SPOT 3 Rocket 3.6 20:45:23 10° SSE 20:50:35 86° ENE 20:55:51 10° NNW
SPOT 5 2.9 20:47:18 10° SSE 20:51:33 55° ENE 20:55:48 10° N
RESURS DK-1 3.4 20:48:10 10° NW 20:52:04 40° WSW 20:55:56 10° S
USA 276 2.2 20:49:42 10° W 20:52:44 75° N 20:55:46 10° E
FALCON 9 DEB 3.4 20:50:52 10° WNW 20:54:06 60° NNE 20:57:20 10° E
Cosmos 1455 4.0 20:51:10 10° NNW 20:54:34 31° W 20:57:57 10° SSW
Cosmos 1726 Rocket 4.0 20:53:04 10° N 20:57:14 45° ENE 21:01:15 11° SSE
IRAS Rocket 4.3 20:56:27 10° NNE 21:02:05 85° ESE 21:07:38 10° SSW
Cosmos 1331 Rocket 4.0 20:57:42 10° SSW 21:03:00 81° ESE 21:08:20 10° NNE
Cosmos 2074 Rocket 4.2 20:57:22 10° NNW 21:03:38 74° W 21:09:50 10° S
Cosmos 2082 Rocket 2.7 20:58:50 10° S 21:04:08 41° ESE 21:09:28 10° NE
Helios 1A Rocket 2.9 21:04:55 11° SSE 21:08:53 74° ENE 21:13:01 10° N
Spot 2 Rocket 3.5 21:04:12 10° SSE 21:09:18 84° ENE 21:14:28 10° NNW
Cosmos 1328 4.0 21:05:31 10° S 21:09:25 54° E 21:13:19 10° NNE
Cosmos 2084 Rocket 3.6 21:06:34 10° NW 21:10:23 55° SW 21:13:53 13° SSE
Cosmos 2360 Rocket 4.3 21:08:10 10° N 21:12:01 18° NE 21:15:51 10° E
Nadezhda 1 Rocket 3.9 21:08:44 10° S 21:14:47 78° E 21:20:53 10° NNE
X-37B 2.4 21:23:06 10° WSW 21:24:41 14° SSW 21:25:27 13° S
ERS-1 Rocket 3.1 21:22:07 11° SSE 21:26:54 80° WSW 21:31:58 10° NNW
Cosmos 1892 3.4 21:26:27 16° SSE 21:28:57 37° E 21:32:28 10° NNE
Meteor 1-21 Rocket 4.5 21:26:00 10° SSW 21:31:36 74° WNW 21:37:22 10° N
Cosmos 2228 4.2 21:30:50 10° NNW 21:34:46 38° W 21:38:41 10° SSW
Cosmos 1302 Rocket 3.9 21:29:55 10° SSW 21:35:05 76° ESE 21:40:18 10° NNE
Cosmos 2154 Rocket 4.5 21:31:54 10° NNW 21:37:59 58° W 21:44:01 10° S
Cosmos 192 4.3 21:33:27 10° SSW 21:38:21 88° WNW 21:43:17 10° NNE
Cosmos 1892 Rocket 3.5 21:38:01 11° S 21:42:10 82° E 21:46:33 10° NNE
Cosmos 968 Rocket 3.7 21:37:09 10° NNW 21:42:20 67° WSW 21:46:30 16° S
ASTRO F (AKARI) 4.5 21:40:19 20° SSE 21:42:37 76° ENE 21:46:07 10° NNW
Cosmos 1697 Rocket 3.9 21:39:46 10° NW 21:44:44 33° WSW 21:49:42 10° SSW
Cosmos 1980 Rocket 2.5 21:40:04 10° NW 21:45:41 62° WSW 21:50:07 16° S
SL-16 R/B 2.9 21:42:59 10° NNW 21:48:29 47° NE 21:52:57 15° ESE
Cosmos 2058 Rocket 3.1 21:45:41 10° N 21:50:09 90° W 21:53:20 19° S
Cosmos 1408 2.3 21:48:45 18° S 21:51:11 82° E 21:54:40 10° N
Cosmos 1626 Rocket 4.3 21:50:06 21° SE 21:52:28 37° E 21:56:29 10° NNE
SL-8 Rocket 4.0 21:47:02 10° N 21:53:18 78° E 21:58:01 18° SSE
ATLAS 5 CENTAUR R/B 1.4 21:50:51 13° SSW 21:54:01 47° SE 21:58:01 10° NE
CZ-2C R/B 3.9 21:49:30 10° N 21:54:03 74° WNW 21:58:30 10° SSW
Cosmos 2369 4.4 21:48:34 10° NW 21:54:04 48° WSW 21:58:31 15° S
USA 267 4.0 21:49:05 10° ENE 21:54:41 30° SE 21:59:31 13° S
Resurs 01 Rocket 4.4 21:53:38 10° WSW 21:54:49 11° W 21:56:00 10° WNW
SJ 16-02 2.6 21:56:40 10° N 22:00:40 32° ENE 22:03:35 16° ESE
SL-4 R/B 3.7 22:04:44 13° E 22:04:44 13° E 22:05:24 10° E
In-Cosmos 22 Rocket 4.2 21:59:05 17° S 22:03:21 68° E 22:08:44 10° NNE
COSMOS 2406 3.9 21:58:47 10° SW 22:04:28 58° WNW 22:10:10 10° NNE
Cosmos 1825 2.2 22:07:59 26° SSE 22:09:53 61° E 22:13:36 10° NNE
Cosmos 1833 Rocket 4.4 22:04:56 10° WSW 22:10:02 35° NW 22:15:11 10° NNE
Cosmos 1867 4.4 22:06:51 10° NW 22:11:56 40° WSW 22:15:18 19° S
Cosmos 2366 rocket 4.0 22:07:18 10° N 22:13:41 90° NW 22:18:15 20° S
Cosmos 1869 3.2 22:12:30 10° N 22:16:26 87° E 22:18:25 28° S
Cosmos 2218 Rocket 4.1 22:13:43 10° N 22:20:10 82° W 22:24:43 21° S
Cosmos 2322 Rocket 2.6 22:16:58 10° NNW 22:22:36 59° ENE 22:26:28 20° SE
GP-B 3.3 22:19:06 10° N 22:23:31 68° W 22:26:26 21° SSW
Meteor 1-27 4.3 22:18:16 10° NNW 22:23:49 76° W 22:27:27 22° S
ARIANE 5 R/B 3.7 22:21:46 16° SSW 22:24:50 36° W 22:28:56 10° NNW
Terra 3.3 22:22:57 12° SSW 22:26:43 29° W 22:30:52 10° NW
SAR-Lupe-4 3.5 22:24:10 10° NNE 22:27:47 88° W 22:29:35 28° SSW
USA 276 2.2 22:25:30 10° W 22:28:26 46° SSW 22:28:42 45° S
FALCON 9 DEB 3.9 22:27:16 10° WNW 22:30:14 32° SW 22:30:31 31° SSW
USA 234 3.6 22:23:59 10° ESE 22:30:27 65° NNE 22:36:57 10° NW
Cosmos 2278 4.4 22:30:33 10° NW 22:35:57 43° WSW 22:39:18 21° SSW
BREEZE-M DEB (TANK) 3.4 22:33:06 10° W 22:36:05 87° SSW 22:46:49 10° ESE
Cosmos 1633 2.4 22:39:00 40° S 22:40:05 70° E 22:43:33 10° NNE
Cosmos 1992 Rocket 4.3 22:37:42 11° SSW 22:42:41 67° WNW 22:47:55 10° NNE
Cosmos 2333 Rocket 3.3 22:38:01 10° NNW 22:43:25 39° NE 22:48:05 13° ESE
Okean 1-7 Rocket 4.0 22:40:57 20° SSW 22:43:58 59° WNW 22:48:27 10° N
Cosmos 1758 Rocket 3.6 22:42:24 32° SSE 22:44:18 64° E 22:48:41 10° NNE
ASTEX 1 4.2 22:42:32 10° N 22:47:21 48° WNW 22:51:09 16° SW
Cosmos 2082 Rocket 3.5 22:42:55 10° WSW 22:48:16 40° NW 22:53:37 10° NNE
Cosmos 1606 2.8 22:49:10 10° N 22:53:02 68° E 22:54:21 38° SSE
Cosmos-2242 2.9 22:49:09 10° N 22:53:25 87° W 22:55:10 35° S
Cosmos 1812 Rocket 3.7 22:49:42 10° NNW 22:54:09 70° W 22:56:09 32° S
Cosmos 2360 Rocket 2.4 22:51:25 10° NNW 22:57:07 70° ENE 23:00:32 25° SE
ADEOS Rocket 3.6 22:53:14 23° SSE 22:58:13 74° ENE 23:06:00 10° NNW
Cosmos 1340 Rocket 3.7 22:58:42 29° ESE 22:59:39 34° E 23:03:16 10° NNE
Gbstr 26 Del rocket 3.4 22:59:00 35° S 23:00:09 43° SE 23:04:49 10° ENE
Cosmos 1821 Rocket 4.0 23:01:40 10° NNW 23:07:53 73° W 23:11:22 27° S
Cosmos 1602 Rocket 4.0 23:05:35 25° SSW 23:07:53 57° WNW 23:12:10 10° N
BREEZE-M DEB (TANK) 4.3 23:12:25 20° ESE 23:12:25 20° ESE 23:14:42 10° E
SL-27 R/B 4.2 23:13:18 18° E 23:13:18 18° E 23:15:23 10° NE
Cosmos 44 3.6 23:14:09 36° SSE 23:15:16 43° ESE 23:19:30 10° NE
Cosmos 972 Rocket 4.3 23:10:22 10° NNW 23:15:35 70° ENE 23:18:41 27° SSE
Cosmos 2237 4.4 23:14:13 10° NW 23:19:50 58° WSW 23:22:29 30° S
ERS-2 2.9 23:19:05 10° NNE 23:22:26 36° E 23:22:56 34° ESE
Cosmos 2237 Rocket 4.5 23:18:42 10° N 23:22:53 20° NE 23:27:03 10° E
ALOS 2 2.6 23:21:37 37° S 23:23:16 73° WSW 23:27:40 10° NNW
Spot 4 4.4 23:21:49 29° SSW 23:23:53 49° W 23:28:33 10° NNW
CENTAUR R/B 3.8 23:22:31 18° SE 23:24:11 20° ESE 23:28:51 10° ENE
Cosmos 1605 Rocket 4.5 23:18:20 10° N 23:24:38 54° ENE 23:28:27 24° SE
NOSS 8 (A) 4.1 23:29:31 63° SSE 23:29:44 66° SE 23:32:40 10° NE
COSMOS 2428 3.7 23:24:25 10° NNW 23:29:53 43° NE 23:34:37 13° ESE
Cosmos 1777 Rocket 4.3 23:25:45 10° NNW 23:30:55 55° WSW 23:33:07 32° SSW
H-2A R/B 3.5 23:26:56 10° NNE 23:31:09 80° WNW 23:32:48 36° SSW
Cosmos 2058 2.9 23:29:58 38° SSW 23:31:30 78° W 23:35:42 10° N
Nadezhda 3 Rocket 4.1 23:28:02 25° SSW 23:31:47 70° W 23:37:58 10° N
SL-16 R/B 3.2 23:27:22 10° NW 23:32:26 34° WSW 23:34:48 24° SSW
Cosmos 2219 Rocket 2.6 23:27:15 10° NNW 23:32:53 60° ENE 23:36:41 21° SE
Cosmos 1953 Rocket 3.5 23:33:03 39° S 23:34:39 79° E 23:39:04 10° NNE
USA 267 3.2 23:31:43 10° ENE 23:38:17 85° SE 23:44:52 10° SW
ATLAS 5 CENTAUR R/B 3.4 23:35:19 10° W 23:38:45 29° NNW 23:42:39 10° NNE
SJ 16-02 2.5 23:35:15 10° NW 23:39:13 32° WSW 23:40:31 27° SW
Meteor 2-2 Rocket 4.5 23:35:08 10° NNW 23:41:08 68° W 23:44:11 30° S
SL-4 R/B 1.5 23:40:05 29° WSW 23:41:44 83° SSE 23:45:27 10° ENE
Cosmos 2322 4.0 23:36:23 10° NNW 23:42:04 65° ENE 23:45:45 22° SE
Cosmos 1825 Rocket 3.9 23:41:10 31° SW 23:43:00 56° WNW 23:47:19 10° N
Cosmos 1898 Rocket 4.4 23:38:27 10° NNW 23:43:24 44° ENE 23:47:02 17° SE
COSMOS 2455 4.3 23:44:55 10° NNW 23:50:25 35° NE 23:55:52 10° ESE
Cosmos 2221 2.5 23:46:20 10° N 23:50:43 87° W 23:52:14 41° S
PSLV R/B 3.9 23:49:07 10° NNE 23:53:51 64° ESE 23:55:36 37° S
